Weather History for KRAP - September, 2013

Change the Weather History Date:

Saturday, September 7, 2013

  Actual Average Record
Temperature  
Mean Temperature 81 °F 65 °F  
Max Temperature 97 °F 80 °F 99 °F (1983)
Min Temperature 65 °F 50 °F 34 °F (1986)
Degree Days  
Heating Degree Days 0 4  
Month to date heating degree days 0 20  
Since 1 July heating degree days 5 57  
Cooling Degree Days 16 3  
Month to date cooling degree days 81 26  
Year to date cooling degree days 672 598  
Growing Degree Days 30 (Base 50)    
Moisture  
Dew Point 61 °F    
Average Humidity 54    
Maximum Humidity 81    
Minimum Humidity 26    
Precipitation  
Precipitation 0.00 in 0.05 in 0.86 in (1946)
Month to date precipitation 0.00 0.30  
Year to date precipitation 14.06 12.93  
Snow  
Snow 0.00 in 0.00 in - ()
Month to date snowfall 0.0 0.0  
Since 1 July snowfall 0.0 0.0  
Since 1 September snowfall 0.0 0.0  
Snow Depth 0.00 in    
Sea Level Pressure  
Sea Level Pressure 29.92 in    
Wind  
Wind Speed 10 mph (SE)    
Max Wind Speed 22 mph    
Max Gust Speed 28 mph    
Visibility 10 miles    
Events      
T = Trace of Precipitation, MM = Missing Value Source: NWS Daily Summary

Daily Weather History Graph

Daily Weather History Graph

Search for Another Location

Airport or City:

Trip Planner

Search our weather history database for the weather conditions in past years. The results will help you decide how hot, cold, wet, or windy it might be!

Date:

Astronomy

Sep. 07, 2013 Rise Set
Actual Time 6:22 AM MDT 7:16 PM MDT
Civil Twilight 5:53 AM MDT 7:46 PM MDT
Nautical Twilight 5:18 AM MDT 8:21 PM MDT
Astronomical Twilight 4:41 AM MDT 8:57 PM MDT
Moon 8:46 AM MDT (9/7) 8:08 PM MDT (9/7)
Length of Visible Light 13h 52m
Length of Day
12h 54m
Waxing Crescent, 5% of the Moon is Illuminated
Sep 7
Waxing Crescent
Sep 12
First Quarter
Sep 19
Full
Sep 26
Last Quarter
Oct 4
New

Hourly Weather History & Observations

Time (MDT) Temp. Heat Index Dew Point Humidity Pressure Visibility Wind Dir Wind Speed Gust Speed Precip Events Conditions
12:52 AM 70.0 °F - 61.0 °F 73% 29.91 in 10.0 mi WNW 3.5 mph - N/A   Clear
1:52 AM 70.0 °F - 60.1 °F 71% 29.89 in 10.0 mi North 11.5 mph - N/A   Clear
2:52 AM 69.1 °F - 61.0 °F 75% 29.91 in 10.0 mi South 5.8 mph - N/A   Clear
3:52 AM 69.1 °F - 61.0 °F 75% 29.94 in 10.0 mi NW 6.9 mph - N/A   Clear
4:52 AM 68.0 °F - 62.1 °F 81% 29.95 in 10.0 mi NW 9.2 mph - N/A   Clear
5:52 AM 68.0 °F - 62.1 °F 81% 29.96 in 10.0 mi WNW 3.5 mph - N/A   Clear
6:52 AM 66.0 °F - 61.0 °F 84% 29.96 in 10.0 mi WNW 6.9 mph - N/A   Clear
7:52 AM 73.9 °F - 63.0 °F 68% 29.97 in 10.0 mi North 4.6 mph - N/A   Clear
8:52 AM 80.1 °F 81.7 °F 64.0 °F 58% 29.97 in 10.0 mi Calm Calm - N/A   Clear
9:52 AM 82.0 °F 83.4 °F 64.0 °F 54% 29.95 in 10.0 mi Variable 4.6 mph - N/A   Clear
10:52 AM 86.0 °F 87.3 °F 64.0 °F 48% 29.96 in 10.0 mi SE 12.7 mph 18.4 mph N/A   Clear
11:52 AM 90.0 °F 90.0 °F 61.0 °F 38% 29.96 in 10.0 mi SSE 15.0 mph - N/A   Clear
12:52 PM 93.0 °F 92.3 °F 59.0 °F 32% 29.94 in 10.0 mi SSE 15.0 mph 21.9 mph N/A   Clear
1:52 PM 95.0 °F 94.0 °F 57.9 °F 29% 29.91 in 10.0 mi SSE 12.7 mph 25.3 mph N/A   Clear
2:52 PM 95.0 °F 93.4 °F 55.9 °F 27% 29.89 in 10.0 mi South 12.7 mph 27.6 mph N/A   Clear
3:52 PM 96.1 °F 94.8 °F 57.0 °F 27% 29.88 in 10.0 mi SSE 16.1 mph 24.2 mph N/A   Clear
4:52 PM 93.9 °F 92.0 °F 55.0 °F 27% 29.87 in 10.0 mi South 16.1 mph 23.0 mph N/A   Clear
5:52 PM 91.9 °F 90.6 °F 57.0 °F 31% 29.87 in 10.0 mi South 8.1 mph - N/A   Clear
6:52 PM 84.9 °F 84.4 °F 59.0 °F 41% 29.86 in 10.0 mi SSE 8.1 mph - N/A   Clear
7:52 PM 82.0 °F 83.1 °F 63.0 °F 52% 29.86 in 10.0 mi ESE 11.5 mph - N/A   Clear
8:52 PM 80.1 °F 81.9 °F 64.9 °F 60% 29.88 in 10.0 mi ESE 13.8 mph - N/A   Clear
9:52 PM 75.9 °F - 63.0 °F 64% 29.90 in 10.0 mi ESE 8.1 mph - N/A   Clear
10:52 PM 73.0 °F - 61.0 °F 66% 29.90 in 10.0 mi East 5.8 mph - N/A   Clear
11:52 PM 73.0 °F - 62.1 °F 68% 29.90 in 10.0 mi ENE 9.2 mph - N/A   Clear